Tracking 17142 objects as of 29-May-2015
HD Live streaming from Space Station

NFIRE

Track NFIRE now!
10-day predictions
NFIRE is classified as:


NORAD ID: 31140
Int'l Code: 2007-014A
Perigee: 428.2 km
Apogee: 444.4 km
Inclination: 48.2 °
Period: 93.2 minutes
Semi major axis: 6807 km
RCS: 1.0597 m2 (large)
Launch date: April 24, 2007
Source: United States (US)

NFIRE is a data-gathering research satellite for the U.S. missile defense program.
Your satellite tracking list
Your tracking list is empty





NASA's NSSDC Master Catalog

Two Line Element Set (TLE):
1 31140U 07014A   15148.47016149  .00005826  00000-0  12615-3 0  9991
2 31140 048.2162 196.1726 0011937 100.9703 348.0349 15.45755379458826

Source of the keplerian elements: AFSPC

N2YO: 291